Weather History for Akron, OH

Change the Weather History Date:

Wednesday, July 17, 2013

  Actual Average (KCAK) Record (KCAK)
Temperature  
Mean Temperature 82 °F 72 °F  
Max Temperature 91 °F 82 °F 99 °F (1931)
Min Temperature 73 °F 62 °F 48 °F (1939)
Degree Days  
Heating Degree Days 0 0  
Month to date heating degree days 0  
Since 1 June heating degree days 49  
Since 1 July heating degree days 0  
Cooling Degree Days 17 7  
Month to date cooling degree days 119  
Year to date cooling degree days 296  
Since 1 June cooling degree days 254  
Growing Degree Days 32 (Base 50)    
Moisture  
Dew Point 72 °F    
Average Humidity 72    
Maximum Humidity 96    
Minimum Humidity 52    
Precipitation  
Precipitation 0.00 in 0.13 in 1.37 in (1968)
Month to date precipitation 2.25  
Year to date precipitation 21.81  
Snow  
Snow 0.00 in 0.00 in - ()
Month to date snowfall 0.0  
Since 1 June snowfall 0.0  
Since 1 July snowfall 0.0  
Snow Depth -    
Sea Level Pressure  
Sea Level Pressure 30.24 in    
Wind  
Wind Speed 3 mph (NW)    
Max Wind Speed 9 mph    
Max Gust Speed -    
Visibility 9 miles    
Events      
T = Trace of Precipitation, MM = Missing Value Source: NWS Daily Summary

Daily Weather History Graph

Daily Weather History Graph

Search for Another Location

Airport:

Trip Planner

Search our weather history database for the weather conditions in past years. The results will help you decide how hot, cold, wet, or windy it might be!

Date:

Astronomy

Jul. 17, 2013 Rise Set
Actual Time 6:08 AM EDT 8:55 PM EDT
Civil Twilight 5:35 AM EDT 9:27 PM EDT
Nautical Twilight 4:55 AM EDT 10:08 PM EDT
Astronomical Twilight 4:08 AM EDT 10:54 PM EDT
Moon 3:42 PM EDT (7/17) 1:15 AM EDT (7/17)
Length of Visible Light 15h 51m
Length of Day
14h 46m
Waxing Gibbous, 67% of the Moon is Illuminated
Jul 17
Waxing Gibbous
Jul 22
Full
Jul 29
Last Quarter
Aug 6
New
Aug 14
First Quarter

Hourly Weather History & Observations

Time (EDT) Temp. Heat Index Dew Point Humidity Pressure Visibility Wind Dir Wind Speed Gust Speed Precip Events Conditions
12:54 AM 75.0 °F - 73.0 °F 94% 30.27 in 8.0 mi SSW 3.5 mph - N/A   Clear
1:54 AM 73.9 °F - 72.0 °F 93% 30.27 in 8.0 mi Calm Calm - N/A   Clear
2:54 AM 73.0 °F - 72.0 °F 96% 30.26 in 6.0 mi Calm Calm - N/A   Clear
3:54 AM 73.9 °F - 72.0 °F 93% 30.26 in 6.0 mi Calm Calm - N/A   Clear
4:54 AM 73.0 °F - 71.1 °F 93% 30.27 in 6.0 mi Calm Calm - N/A   Clear
5:54 AM 73.0 °F - 71.1 °F 93% 30.27 in 4.0 mi Calm Calm - N/A   Scattered Clouds
6:54 AM 75.0 °F - 72.0 °F 90% 30.29 in 7.0 mi Calm Calm - N/A   Partly Cloudy
7:54 AM 79.0 °F - 72.0 °F 79% 30.29 in 9.0 mi NW 5.8 mph - N/A   Clear
8:54 AM 82.0 °F 87.4 °F 73.0 °F 74% 30.30 in 10.0 mi North 4.6 mph - N/A   Clear
9:54 AM 84.9 °F 91.4 °F 73.0 °F 67% 30.29 in 10.0 mi NW 5.8 mph - N/A   Clear
10:54 AM 86.0 °F 93.0 °F 73.0 °F 65% 30.28 in 10.0 mi North 5.8 mph - N/A   Clear
11:54 AM 88.0 °F 95.6 °F 73.0 °F 61% 30.27 in 10.0 mi Calm Calm - N/A   Scattered Clouds
12:54 PM 88.0 °F 94.7 °F 72.0 °F 59% 30.27 in 10.0 mi NNW 9.2 mph - N/A   Scattered Clouds
1:54 PM 89.1 °F 96.0 °F 72.0 °F 57% 30.25 in 10.0 mi WNW 4.6 mph - N/A   Scattered Clouds
2:54 PM 87.1 °F 92.8 °F 71.1 °F 59% 30.24 in 10.0 mi NW 9.2 mph - N/A   Mostly Cloudy
3:54 PM 91.0 °F 99.3 °F 73.0 °F 55% 30.21 in 10.0 mi NNW 5.8 mph - N/A   Scattered Clouds
4:54 PM 90.0 °F 96.4 °F 71.1 °F 54% 30.19 in 10.0 mi West 5.8 mph - N/A   Scattered Clouds
5:54 PM 89.1 °F 95.0 °F 71.1 °F 55% 30.17 in 10.0 mi NW 8.1 mph - N/A   Overcast
6:54 PM 89.1 °F 93.7 °F 69.1 °F 52% 30.17 in 10.0 mi WNW 5.8 mph - N/A   Clear
7:54 PM 87.1 °F 92.8 °F 71.1 °F 59% 30.17 in 10.0 mi WNW 6.9 mph - N/A   Clear
8:54 PM 84.9 °F 88.8 °F 69.1 °F 59% 30.16 in 10.0 mi NNW 6.9 mph - N/A   Clear
9:54 PM 82.9 °F 87.0 °F 70.0 °F 65% 30.18 in 10.0 mi NW 3.5 mph - N/A   Clear
10:54 PM 81.0 °F 85.2 °F 72.0 °F 74% 30.18 in 10.0 mi Calm Calm - N/A   Clear
11:54 PM 78.1 °F - 72.0 °F 81% 30.18 in 9.0 mi Calm Calm - N/A   Clear